Weather History for KDMN - January, 2014

Change the Weather History Date:

Thursday, January 9, 2014

  Actual Average Record
Temperature  
Mean Temperature 41 °F 41 °F  
Max Temperature 59 °F 56 °F - ()
Min Temperature 23 °F 26 °F - ()
Degree Days  
Heating Degree Days 24    
Moisture  
Dew Point 13 °F    
Average Humidity 33    
Maximum Humidity 50    
Minimum Humidity 16    
Precipitation  
Precipitation 0.00 in 0.02 in - ()
Month to date precipitation 0.00 0.16  
Year to date precipitation 0.00 0.16  
Sea Level Pressure  
Sea Level Pressure 30.00 in    
Wind  
Wind Speed 7 mph (West)    
Max Wind Speed 16 mph    
Max Gust Speed 22 mph    
Visibility 10 miles    
Events      
T = Trace of Precipitation, MM = Missing Value Source: NWS Daily Summary

Daily Weather History Graph

Daily Weather History Graph

Search for Another Location

Airport or City:

Trip Planner

Search our weather history database for the weather conditions in past years. The results will help you decide how hot, cold, wet, or windy it might be!

Date:

Astronomy

Jan. 09, 2014 Rise Set
Actual Time 7:12 AM MST 5:23 PM MST
Civil Twilight 6:46 AM MST 5:50 PM MST
Nautical Twilight 6:15 AM MST 6:20 PM MST
Astronomical Twilight 5:46 AM MST 6:50 PM MST
Moon 12:45 PM MST (1/9) 1:31 AM MST (1/9)
Length of Visible Light 11h 04m
Length of Day
10h 10m
Waxing Gibbous, 66% of the Moon is Illuminated
Jan 9
Waxing Gibbous
Jan 15
Full
Jan 23
Last Quarter
Jan 30
New
Feb 6
First Quarter

Hourly Weather History & Observations

Time (MST) Temp. Windchill Dew Point Humidity Pressure Visibility Wind Dir Wind Speed Gust Speed Precip Events Conditions
12:53 AM 34.0 °F 27.2 °F 10.0 °F 37% 30.01 in 10.0 mi West 8.1 mph - N/A   Clear
1:53 AM 32.0 °F - 10.0 °F 40% 30.01 in 10.0 mi Calm Calm - N/A   Clear
2:53 AM 30.9 °F 27.5 °F 10.0 °F 42% 30.02 in 10.0 mi SSW 3.5 mph - N/A   Clear
3:53 AM 28.9 °F 23.9 °F 10.0 °F 45% 30.04 in 10.0 mi WNW 4.6 mph - N/A   Clear
4:53 AM 28.0 °F 22.8 °F 10.0 °F 47% 30.03 in 10.0 mi WNW 4.6 mph - N/A   Clear
5:53 AM 24.1 °F 18.2 °F 8.1 °F 51% 30.05 in 10.0 mi West 4.6 mph - N/A   Clear
6:53 AM 24.1 °F 18.2 °F 9.0 °F 53% 30.08 in 10.0 mi SW 4.6 mph - N/A   Clear
7:53 AM 28.0 °F 21.7 °F 10.9 °F 49% 30.09 in 10.0 mi WSW 5.8 mph - N/A   Clear
8:53 AM 35.1 °F - 14.0 °F 42% 30.09 in 10.0 mi Calm Calm - N/A   Clear
9:53 AM 45.0 °F 43.5 °F 15.1 °F 30% 30.08 in 10.0 mi WSW 3.5 mph - N/A   Clear
10:53 AM 52.0 °F - 14.0 °F 22% 30.06 in 10.0 mi West 9.2 mph - N/A   Clear
11:53 AM 55.9 °F - 12.9 °F 18% 30.00 in 10.0 mi WSW 9.2 mph - N/A   Clear
12:53 PM 57.9 °F - 15.1 °F 19% 29.95 in 10.0 mi WSW 11.5 mph - N/A   Clear
1:53 PM 59.0 °F - 14.0 °F 17% 29.91 in 10.0 mi West 13.8 mph - N/A   Clear
2:53 PM 57.9 °F - 12.9 °F 17% 29.90 in 10.0 mi WSW 13.8 mph - N/A   Clear
4:53 PM 55.0 °F - 15.1 °F 21% 29.92 in 10.0 mi WNW 9.2 mph - N/A   Clear
5:53 PM 52.0 °F - 15.1 °F 23% 29.95 in 10.0 mi WNW 10.4 mph - N/A   Clear
6:53 PM 51.1 °F - 15.1 °F 24% 29.96 in 10.0 mi WNW 10.4 mph - N/A   Clear
7:53 PM 46.9 °F - 15.1 °F 28% 29.98 in 10.0 mi West 5.8 mph - N/A   Clear
8:53 PM 43.0 °F 38.8 °F 15.1 °F 32% 29.99 in 10.0 mi West 6.9 mph - N/A   Clear
9:53 PM 39.0 °F 35.7 °F 15.1 °F 38% 29.97 in 10.0 mi North 4.6 mph - N/A   Clear
10:53 PM 39.0 °F 34.8 °F 15.1 °F 38% 29.94 in 10.0 mi West 5.8 mph - N/A   Clear
11:53 PM 37.0 °F 31.0 °F 15.1 °F 41% 29.93 in 10.0 mi West 8.1 mph - N/A   Clear